Tepic, Mexico

10:26 PM MDT on August 17, 2017 (GMT -0600)
Tepic

Weather History for MMEP - October, 2012

Change the Weather History Date:

Monday, October 22, 2012

  Actual Average Record
Temperature  
Mean Temperature 76 °F -  
Max Temperature 83 °F 82 °F 89 °F (1999)
Min Temperature 70 °F 59 °F 51 °F (1997)
Cooling Degree Days 12    
Growing Degree Days 26 (Base 50)    
Moisture  
Dew Point 69 °F    
Average Humidity 79    
Maximum Humidity 100    
Minimum Humidity 55    
Precipitation  
Precipitation 0.00 in - - ()
Sea Level Pressure  
Sea Level Pressure 29.94 in    
Wind  
Wind Speed 2 mph ()    
Max Wind Speed 9 mph    
Max Gust Speed -    
Visibility 5.7 miles    
Events Fog    
Averages and records for this station are not official NWS values.
T = Trace of Precipitation, MM = Missing Value Source: Averaged Metar Reports

Daily Weather History Graph

Daily Weather History Graph

Search for Another Location

Airport or City:

Trip Planner

Search our weather history database for the weather conditions in past years. The results will help you decide how hot, cold, wet, or windy it might be!

Date:

Astronomy

Oct. 22, 2012 Rise Set
Actual Time 6:58 AM MDT 6:29 PM MDT
Civil Twilight 6:35 AM MDT 6:51 PM MDT
Nautical Twilight 6:09 AM MDT 7:17 PM MDT
Astronomical Twilight 5:43 AM MDT 7:43 PM MDT
Moon 1:53 PM MDT (10/22) 12:38 AM MDT (10/22)
Length of Visible Light 12h 16m
Length of Day
11h 30m
First Quarter, 57% of the Moon is Illuminated
Oct 22
First Quarter
Oct 29
Full
Nov 6
Last Quarter
Nov 13
New
Nov 20
First Quarter

Hourly Weather History & Observations

Time (MDT) Temp. Heat Index Dew Point Humidity Pressure Visibility Wind Dir Wind Speed Gust Speed Precip Events Conditions
2:30 AM 72 °F - 70 °F 91% 29.81 in 5 mi North 2.2 mph - -   Mist
5:30 AM 71 °F - 69 °F 90% 29.82 in 5 mi SE 2.2 mph - -   Mist
6:08 AM 64.4 °F - 64.4 °F 100% 30.04 in 2.0 mi Calm Calm - N/A   Mostly Cloudy
6:51 AM 64.4 °F - 64.4 °F 100% 30.05 in 0.5 mi Calm Calm - N/A Fog Fog
7:45 AM 69.8 °F - 68.0 °F 94% 30.07 in 1.0 mi Calm Calm - N/A   Mostly Cloudy
8:30 AM 71.6 °F - 66.2 °F 83% 30.08 in 3.0 mi Calm Calm - N/A   Mostly Cloudy
8:32 AM 72 °F - 68 °F 85% 29.88 in 11 mi Calm Calm - -   Mist
8:44 AM 71.6 °F - 66.2 °F 83% 29.91 in 3.0 mi Calm Calm - N/A   Mostly Cloudy
9:42 AM 77.0 °F - 66.2 °F 69% 30.10 in 7.0 mi Calm Calm - N/A   Scattered Clouds
10:40 AM 80.6 °F 82.7 °F 66.2 °F 61% 30.10 in 7.0 mi Calm Calm - N/A   Scattered Clouds
11:34 AM 81 °F - 70 °F 61% 29.87 in 11 mi West 4.5 mph - -   Mist
12:40 PM 84.2 °F 86.6 °F 66.2 °F 55% 30.06 in 7.0 mi Calm Calm - N/A   Scattered Clouds
1:54 PM 82.4 °F 86.3 °F 69.8 °F 66% 30.00 in 7.0 mi North 4.6 mph - N/A   Mostly Cloudy
2:33 PM 83 °F - 71 °F 59% 29.79 in 11 mi WNW 8.9 mph - -   Haze
2:48 PM 82.4 °F 86.3 °F 69.8 °F 66% 29.83 in 8.0 mi North 6.9 mph - N/A   Mostly Cloudy
3:43 PM 80.6 °F 85.4 °F 73.4 °F 79% 29.98 in 7.0 mi North 8.1 mph - N/A   Mostly Cloudy
5:34 PM 80 °F - 71 °F 67% 29.79 in 10 mi West 8.9 mph - -   Mist
5:42 PM 77.0 °F - 71.6 °F 83% 29.87 in 5.0 mi North 8.1 mph - N/A   Mostly Cloudy
6:47 PM 75.2 °F - 69.8 °F 83% 30.00 in 3.0 mi North 6.9 mph - N/A   Overcast
7:47 PM 73.4 °F - 71.6 °F 94% 30.00 in 3.0 mi North 5.8 mph - N/A   Overcast
8:30 PM 75 °F - 72 °F 87% 29.85 in 4 mi West 6.7 mph - -   Mist
11:32 PM 73 °F - 70 °F 87% 29.85 in 4 mi WSW 6.7 mph - -   Mist